カタログに戻る

COSMOS 1818 COOLANT

LostLEO
NORAD 36934·DEBRIS·🇷🇺 Russia

打ち上げ Feb 1, 1987 から Baikonur Cosmodrome

Loading…

次のパス (今後24時間)

TLE

古いSource: Space-Track

元期: May 25, 2015, 01:52 UTC

1 36934U 87011N   15145.07798875 -.00000084  00000-0  63348-5 0  9991
2 36934  64.9859  38.0645 0017163 328.5618  97.2874 14.31029680301460

AllMySatでCOSMOS 1818 COOLANTをリアルタイム追跡

Download on the App Store